Jackson, TN

6:42 PM CDT on August 17, 2019 (GMT -0500)
McKellar-Sipes Regional

Weather History for KMKL - July, 2019

Change the Weather History Date:

Monday, July 22, 2019

  Actual Average Record
Temperature  
Mean Temperature 80 °F 80 °F  
Max Temperature 88 °F 91 °F 101 °F (1952)
Min Temperature 71 °F 69 °F 57 °F (2007)
Degree Days  
Heating Degree Days 0 0  
Month to date heating degree days 0 0  
Since 1 June heating degree days 1 2  
Since 1 July heating degree days 0 0  
Cooling Degree Days 15 15  
Month to date cooling degree days 360 323  
Year to date cooling degree days 941 877  
Since 1 June cooling degree days 681 662  
Growing Degree Days 30 (Base 50)    
Moisture  
Dew Point 73 °F    
Average Humidity 87    
Maximum Humidity 100    
Minimum Humidity 74    
Precipitation  
Precipitation 0.55 in 0.14 in 1.79 in (1995)
Month to date precipitation 9.87 3.23  
Year to date precipitation 42.69 31.61  
Sea Level Pressure  
Sea Level Pressure 29.94 in    
Wind  
Wind Speed 9 mph (West)    
Max Wind Speed 24 mph    
Max Gust Speed 32 mph    
Visibility 9 miles    
Events Rain , Thunderstorm    
T = Trace of Precipitation, MM = Missing Value Source: NWS Daily Summary

Daily Weather History Graph

Daily Weather History Graph

Search for Another Location

Airport or City:

Astronomy

Jul. 22, 2019 Rise Set
Actual Time 5:56 AM CDT 8:07 PM CDT
Civil Twilight 5:27 AM CDT 8:36 PM CDT
Nautical Twilight 4:52 AM CDT 9:11 PM CDT
Astronomical Twilight 4:13 AM CDT 9:49 PM CDT
Moon 11:39 PM CDT (7/22) 11:03 AM CDT (7/22)
Length of Visible Light 15h 09m
Length of Day
14h 11m
Waning Gibbous, 72% of the Moon is Illuminated
Jul 22
Waning Gibbous
Jul 24
Last Quarter
Jul 31
New
Aug 7
First Quarter
Aug 15
Full

Hourly Weather History & Observations

Time (CDT) Temp. Heat Index Dew Point Humidity Pressure Visibility Wind Dir Wind Speed Gust Speed Precip Events Conditions
12:53 AM 75.9 °F - 75.0 °F 97% 29.94 in 10.0 mi SSW 4.6 mph - N/A   Clear
1:53 AM 77.0 °F - 75.0 °F 94% 29.92 in 10.0 mi SSW 6.9 mph - N/A   Clear
2:53 AM 75.9 °F - 75.0 °F 97% 29.92 in 10.0 mi SSW 5.8 mph - N/A   Clear
3:53 AM 75.9 °F - 73.9 °F 94% 29.92 in 10.0 mi South 3.5 mph - N/A   Clear
4:53 AM 75.9 °F - 75.0 °F 97% 29.94 in 10.0 mi SSE 6.9 mph - N/A   Overcast
5:53 AM 75.9 °F - 75.0 °F 97% 29.92 in 8.0 mi South 8.1 mph - N/A   Partly Cloudy
6:53 AM 75.9 °F - 75.0 °F 97% 29.94 in 9.0 mi SSW 5.8 mph - N/A   Scattered Clouds
7:18 AM 75.9 °F - 75.0 °F 97% 29.96 in 10.0 mi South 5.8 mph - N/A   Mostly Cloudy
7:53 AM 77.0 °F - 75.0 °F 94% 29.94 in 10.0 mi SSW 8.1 mph - N/A   Overcast
8:49 AM 78.8 °F - 75.2 °F 89% 29.96 in 10.0 mi SW 5.8 mph - N/A Thunderstorm Overcast
8:53 AM 78.1 °F - 75.9 °F 93% 29.95 in 10.0 mi SW 6.9 mph - N/A Thunderstorm Overcast
9:04 AM 79.0 °F - 75.9 °F 90% 29.96 in 10.0 mi SW 5.8 mph - N/A   Overcast
9:40 AM 79.0 °F - 75.9 °F 90% 29.96 in 10.0 mi SSW 6.9 mph - N/A   Overcast
9:53 AM 79.0 °F - 75.0 °F 88% 29.95 in 10.0 mi WSW 8.1 mph - N/A   Overcast
10:21 AM 81.0 °F 87.3 °F 75.9 °F 85% 29.95 in 10.0 mi SSW 5.8 mph - N/A   Overcast
10:31 AM 82.0 °F 89.4 °F 75.9 °F 82% 29.94 in 10.0 mi SSW 6.9 mph - N/A   Mostly Cloudy
10:51 AM 82.4 °F 89.5 °F 75.2 °F 79% 29.94 in 10.0 mi SSW 13.8 mph 17.3 mph N/A   Mostly Cloudy
10:53 AM 82.0 °F 88.6 °F 75.0 °F 79% 29.92 in 10.0 mi South 11.5 mph 17.3 mph N/A   Mostly Cloudy
11:30 AM 82.9 °F 90.8 °F 75.9 °F 79% 29.94 in 10.0 mi South 10.4 mph - N/A   Mostly Cloudy
11:53 AM 84.9 °F 94.1 °F 75.9 °F 74% 29.92 in 10.0 mi SW 10.4 mph - N/A   Scattered Clouds
12:35 PM 87.1 °F 98.8 °F 77.0 °F 72% 29.92 in 10.0 mi SW 10.4 mph - N/A   Mostly Cloudy
12:53 PM 86.0 °F 96.9 °F 77.0 °F 74% 29.91 in 10.0 mi WSW 10.4 mph 19.6 mph N/A   Mostly Cloudy
1:09 PM 84.9 °F 94.1 °F 75.9 °F 74% 29.93 in 10.0 mi WSW 10.4 mph - N/A Thunderstorm Scattered Clouds
1:25 PM 84.0 °F 92.6 °F 75.9 °F 76% 29.94 in 10.0 mi WSW 12.7 mph - N/A Thunderstorm Mostly Cloudy
1:37 PM 82.9 °F 90.2 °F 75.0 °F 77% 29.94 in 10.0 mi WSW 10.4 mph - N/A Thunderstorm Thunderstorm
1:53 PM 75.9 °F - 72.0 °F 87% 29.95 in 2.0 mi NW 19.6 mph 32.2 mph 0.07 in Rain , Thunderstorm Heavy Thunderstorms and Rain
1:58 PM 73.9 °F - 72.0 °F 93% 29.97 in 1.0 mi NW 16.1 mph 31.1 mph 0.06 in Rain , Thunderstorm Heavy Thunderstorms and Rain
2:11 PM 73.0 °F - 72.0 °F 96% 29.96 in 0.8 mi NW 20.7 mph 26.5 mph 0.27 in Rain , Thunderstorm Heavy Thunderstorms and Rain
2:20 PM 72.0 °F - 68.0 °F 87% 29.95 in 2.0 mi West 16.1 mph 27.6 mph 0.30 in Rain , Thunderstorm Thunderstorms and Rain
2:28 PM 73.0 °F - 70.0 °F 90% 29.95 in 7.0 mi NW 10.4 mph 27.6 mph 0.31 in Rain , Thunderstorm Thunderstorms and Rain
2:35 PM 73.0 °F - 71.1 °F 93% 29.96 in 8.0 mi WNW 9.2 mph - 0.31 in Rain , Thunderstorm Light Rain
2:53 PM 73.0 °F - 71.1 °F 93% 29.92 in 6.0 mi SSW 3.5 mph - 0.32 in Rain , Thunderstorm Light Rain
3:11 PM 73.0 °F - 72.0 °F 96% 29.93 in 4.0 mi WSW 5.8 mph - 0.04 in Rain Light Rain
3:43 PM 73.0 °F - 72.0 °F 96% 29.93 in 2.5 mi WNW 4.6 mph - 0.13 in Rain Rain
3:53 PM 73.0 °F - 72.0 °F 96% 29.91 in 4.0 mi West 5.8 mph - 0.15 in Rain Light Rain
4:49 PM 75.2 °F - 73.4 °F 94% 29.92 in 10.0 mi WNW 6.9 mph - 0.00 in   Partly Cloudy
4:53 PM 75.9 °F - 73.9 °F 94% 29.91 in 10.0 mi NW 5.8 mph - 0.00 in   Scattered Clouds
5:02 PM 75.9 °F - 73.9 °F 94% 29.93 in 10.0 mi WNW 4.6 mph - N/A   Mostly Cloudy
5:50 PM 77.0 °F - 75.2 °F 94% 29.92 in 10.0 mi North 8.1 mph - N/A   Overcast
5:53 PM 77.0 °F - 75.0 °F 94% 29.91 in 9.0 mi NNE 11.5 mph 18.4 mph 0.01 in Rain Light Rain
6:02 PM 77.0 °F - 73.9 °F 90% 29.93 in 10.0 mi North 15.0 mph 23.0 mph 0.00 in Rain Light Rain
6:14 PM 77.0 °F - 73.9 °F 90% 29.93 in 10.0 mi North 11.5 mph - 0.00 in   Mostly Cloudy
6:27 PM 77.0 °F - 73.0 °F 88% 29.93 in 10.0 mi North 15.0 mph - 0.00 in   Scattered Clouds
6:53 PM 75.9 °F - 72.0 °F 87% 29.93 in 10.0 mi North 11.5 mph - 0.00 in   Overcast
7:53 PM 75.0 °F - 71.1 °F 87% 29.95 in 10.0 mi North 9.2 mph - N/A   Overcast
8:23 PM 73.9 °F - 71.1 °F 91% 29.97 in 10.0 mi North 15.0 mph - N/A   Overcast
8:40 PM 73.0 °F - 71.1 °F 93% 29.98 in 10.0 mi North 12.7 mph - N/A   Overcast
8:53 PM 73.0 °F - 70.0 °F 90% 29.97 in 10.0 mi North 12.7 mph - N/A   Overcast
9:18 PM 73.0 °F - 70.0 °F 90% 29.99 in 10.0 mi North 9.2 mph - N/A   Overcast
9:27 PM 73.0 °F - 69.1 °F 87% 29.99 in 10.0 mi North 12.7 mph - N/A   Overcast
9:53 PM 73.0 °F - 69.1 °F 87% 29.98 in 10.0 mi North 11.5 mph - N/A   Overcast
10:53 PM 72.0 °F - 68.0 °F 87% 29.99 in 10.0 mi North 9.2 mph - N/A   Overcast
11:53 PM 71.1 °F - 66.9 °F 87% 29.99 in 10.0 mi NNE 6.9 mph - N/A   Overcast